Flag for U.S.A. Weather past 2 weeks in Prescott, Arizona, U.S.A.

Now
43 °F

Scattered clouds.


Feels Like: 43 °F
Forecast: 31 / 45 °F
Wind: No wind

Location: Love Field

Current Time: Dec 18, 2014 at 2:20:21 PM

Latest Report: Dec 18, 2014 at 1:53 PM


Visibility: 10 mi

Pressure: 30.05 "Hg

Humidity: 56%

Dew point: 28 °F

Location of PrescottLocation

Historic Weather in Prescott — Graph

°F

Prescott temperature yesterday

Maximum temperature yesterday: 42 °F (at 1:53 AM)
Minimum temperature yesterday: 34 °F (at 11:53 PM)
Average temperature yesterday: 39 °F

Past Weeks' High & Low Weather Summary

 TemperatureHumidityPressure
High62 °F (Dec 10, 2:53 PM)93% (Dec 3, 1:53 PM)30.30 "Hg (Dec 3, 1:53 PM)
Low27 °F (Dec 15, 4:53 AM)21% (Dec 15, 2:53 PM)29.88 "Hg (Dec 13, 1:53 AM)
Average44 °F71%30.06 "Hg
* Reported Dec 3 12:53 PM — Dec 18 12:53 PM, Prescott, Weather by CustomWeather, © 2014

Note: Actual official high and low records may vary slightly from our data, if they occured in-between our weather recording intervals... More about our weather records

Advertising

Prescott weather history for previous 24 hours

 ConditionsComfort  
Time TempWeatherWind HumidityBarometerVisibility
12:53 PM
Dec 18
45 °FOvercast.3 mph53%30.05 "Hg10 mi
11:53 AM40 °FMostly cloudy.No wind73%30.11 "Hg10 mi
10:53 AM38 °FLight rain. Mostly cloudy.No wind79%30.13 "Hg10 mi
9:53 AM37 °FMostly cloudy.No wind82%30.12 "Hg10 mi
9:00 AM36 °FMostly cloudy.No wind85%30.14 "Hg10 mi
7:53 AM35 °FOvercast.3 mph85%30.09 "Hg10 mi
6:53 AM33 °FOvercast.3 mph88%30.08 "Hg10 mi
5:53 AM35 °FOvercast.No wind82%30.06 "Hg10 mi
4:53 AM34 °FOvercast.3 mph82%30.06 "Hg10 mi
3:53 AM33 °FPassing clouds.3 mph85%30.05 "Hg10 mi
2:53 AM33 °FLow clouds.No wind88%30.06 "Hg10 mi
1:53 AM34 °FPassing clouds.No wind85%30.06 "Hg10 mi
12:53 AM34 °FPartly cloudy.6 mph85%30.07 "Hg10 mi
11:53 PM
Dec 17
34 °FClear.6 mph85%30.08 "Hg10 mi
10:53 PM37 °FOvercast.3 mph82%30.06 "Hg10 mi
9:53 PM38 °FOvercast.5 mph79%30.07 "Hg10 mi
8:53 PM37 °FMostly cloudy.6 mph86%30.06 "Hg10 mi
7:53 PM37 °FPassing clouds.5 mph82%30.05 "Hg10 mi
6:53 PM38 °FPassing clouds.5 mph79%30.03 "Hg10 mi
5:53 PM38 °FOvercast.8 mph79%30.02 "Hg10 mi
4:53 PM39 °FCloudy.6 mph82%30.00 "Hg10 mi
3:53 PM41 °FCloudy.7 mph74%29.98 "Hg10 mi
2:53 PM41 °FMostly cloudy.8 mph74%29.97 "Hg10 mi
Weather by CustomWeather, © 2014

See weather overviewHow to use our weather pages